Albany, NY

5:57 PM EST on January 17, 2018 (GMT -0500)
Albany International

Weather History for KALB - January, 2014

Change the Weather History Date:

Wednesday, January 29, 2014

  Actual Average Record
Temperature  
Mean Temperature 10 °F 23 °F  
Max Temperature 22 °F 31 °F 54 °F (2002)
Min Temperature -3 °F 15 °F -10 °F (1925)
Degree Days  
Heating Degree Days 55 42  
Month to date heating degree days 1305 1234  
Since 1 July heating degree days 3829 3769  
Cooling Degree Days 0 0  
Month to date cooling degree days 0 0  
Year to date cooling degree days 0 0  
Moisture  
Dew Point -6 °F    
Average Humidity 54    
Maximum Humidity 79    
Minimum Humidity 28    
Precipitation  
Precipitation 0.00 in 0.08 in 1.09 in (1990)
Month to date precipitation 2.31 2.43  
Year to date precipitation 2.31 2.43  
Snow  
Snow 0.00 in 0.60 in 8.30 in (1990)
Month to date snowfall 15.0 16.9  
Since 1 July snowfall 37.1 33.7  
Snow Depth 1.00 in    
Sea Level Pressure  
Sea Level Pressure 30.15 in    
Wind  
Wind Speed 4 mph (West)    
Max Wind Speed 20 mph    
Max Gust Speed 23 mph    
Visibility 10 miles    
Events      
T = Trace of Precipitation, MM = Missing Value Source: NWS Daily Summary

Daily Weather History Graph

Daily Weather History Graph

Search for Another Location

Airport or City:

Trip Planner

Search our weather history database for the weather conditions in past years. The results will help you decide how hot, cold, wet, or windy it might be!

Date:

Astronomy

Jan. 29, 2014 Rise Set
Actual Time 7:12 AM EST 5:04 PM EST
Civil Twilight 6:42 AM EST 5:34 PM EST
Nautical Twilight 6:08 AM EST 6:08 PM EST
Astronomical Twilight 5:35 AM EST 6:42 PM EST
Moon 5:47 AM EST (1/29) 4:01 PM EST (1/29)
Length of Visible Light 10h 52m
Length of Day
9h 51m
Waning Crescent, 2% of the Moon is Illuminated
Jan 29
Waning Crescent
Jan 30
New
Feb 6
First Quarter
Feb 14
Full
Feb 22
Last Quarter

Hourly Weather History & Observations

Time (EST) Temp. Windchill Dew Point Humidity Pressure Visibility Wind Dir Wind Speed Gust Speed Precip Events Conditions
12:51 AM 7.0 °F - -0.9 °F 70% 30.23 in 10.0 mi Calm Calm - N/A   Mostly Cloudy
1:51 AM 6.1 °F - -0.9 °F 73% 30.21 in 10.0 mi Calm Calm - N/A   Mostly Cloudy
2:51 AM 3.9 °F - -2.9 °F 73% 30.19 in 10.0 mi Calm Calm - N/A   Mostly Cloudy
3:51 AM 5.0 °F - -2.0 °F 73% 30.18 in 10.0 mi Calm Calm - N/A   Mostly Cloudy
4:51 AM 3.0 °F - -5.1 °F 69% 30.16 in 10.0 mi Calm Calm - N/A   Partly Cloudy
5:51 AM -0.0 °F - -6.0 °F 76% 30.15 in 10.0 mi Calm Calm - N/A   Partly Cloudy
6:51 AM -2.0 °F - -8.0 °F 76% 30.16 in 10.0 mi Calm Calm - N/A   Scattered Clouds
7:51 AM -0.9 °F - -7.1 °F 75% 30.17 in 10.0 mi Calm Calm - N/A   Partly Cloudy
8:51 AM 5.0 °F - -2.0 °F 73% 30.17 in 10.0 mi Calm Calm - N/A   Partly Cloudy
9:51 AM 10.9 °F 0.2 °F -9.9 °F 39% 30.15 in 10.0 mi SSW 6.9 mph - N/A   Clear
10:51 AM 14.0 °F 3.9 °F -9.0 °F 35% 30.13 in 10.0 mi SW 6.9 mph - N/A   Clear
11:51 AM 18.0 °F 12.7 °F -8.0 °F 31% 30.09 in 10.0 mi West 3.5 mph - N/A   Clear
12:51 PM 19.9 °F 8.6 °F -8.0 °F 29% 30.05 in 10.0 mi West 10.4 mph 18.4 mph N/A   Clear
1:51 PM 21.0 °F 9.9 °F -8.0 °F 28% 30.03 in 10.0 mi WSW 10.4 mph - N/A   Clear
2:51 PM 21.0 °F 8.6 °F -8.0 °F 28% 30.04 in 10.0 mi WNW 12.7 mph 21.9 mph N/A   Clear
3:51 PM 19.9 °F 6.2 °F -8.0 °F 29% 30.06 in 10.0 mi WNW 15.0 mph - N/A   Clear
4:51 PM 19.0 °F 6.8 °F -9.0 °F 29% 30.09 in 10.0 mi West 11.5 mph - N/A   Partly Cloudy
5:51 PM 17.1 °F 8.7 °F -9.0 °F 31% 30.12 in 10.0 mi West 5.8 mph - N/A   Scattered Clouds
6:51 PM 14.0 °F 8.2 °F -8.0 °F 37% 30.16 in 10.0 mi WNW 3.5 mph - N/A   Mostly Cloudy
7:51 PM 10.9 °F - -7.1 °F 44% 30.19 in 10.0 mi Calm Calm - N/A   Scattered Clouds
8:51 PM 9.0 °F - -5.1 °F 53% 30.21 in 10.0 mi Calm Calm - N/A   Scattered Clouds
9:51 PM 7.0 °F - -6.0 °F 55% 30.24 in 10.0 mi Calm Calm - N/A   Scattered Clouds
10:51 PM 7.0 °F - -5.1 °F 58% 30.26 in 10.0 mi Calm Calm - N/A   Clear
11:51 PM 12.9 °F 0.7 °F -5.1 °F 45% 30.27 in 10.0 mi West 9.2 mph - N/A   Clear